Lawrenceville, GA

4:06 PM EST on December 14, 2019 (GMT -0500)
Gwinnett County-Briscoe

Weather History for KLZU - September, 2019

Change the Weather History Date:

Friday, September 6, 2019

  Actual Average (KWDR) Record (KWDR)
Temperature  
Mean Temperature 80 °F -  
Max Temperature 93 °F 83 °F 95 °F (1957)
Min Temperature 66 °F 62 °F 53 °F (1982)
Cooling Degree Days 14    
Growing Degree Days 30 (Base 50)    
Moisture  
Dew Point 61 °F    
Average Humidity 60    
Maximum Humidity 84    
Minimum Humidity 20    
Precipitation  
Precipitation 0.00 in - - ()
Sea Level Pressure  
Sea Level Pressure 29.92 in    
Wind  
Wind Speed 3 mph (West)    
Max Wind Speed 12 mph    
Max Gust Speed -    
Visibility 10 miles    
Events      
Averages and records for this station are not official NWS values.
T = Trace of Precipitation, MM = Missing Value Source: NWS Daily Summary

Daily Weather History Graph

Daily Weather History Graph

Search for Another Location

Airport or City:

Astronomy

Sep. 06, 2019 Rise Set
Actual Time 7:12 AM EDT 7:55 PM EDT
Civil Twilight 6:47 AM EDT 8:20 PM EDT
Nautical Twilight 6:17 AM EDT 8:50 PM EDT
Astronomical Twilight 5:46 AM EDT 9:20 PM EDT
Moon 2:59 PM EDT (9/6) 12:31 AM EDT (9/6)
Length of Visible Light 13h 32m
Length of Day
12h 42m
First Quarter, 55% of the Moon is Illuminated
Sep 6
First Quarter
Sep 14
Full
Sep 21
Last Quarter
Sep 28
New
Oct 5
First Quarter

Hourly Weather History & Observations

Time (EDT) Temp. Heat Index Dew Point Humidity Pressure Visibility Wind Dir Wind Speed Gust Speed Precip Events Conditions
12:56 AM 73.9 °F - 63.0 °F 68% 29.90 in 10.0 mi West 4.6 mph - N/A   Clear
1:56 AM 72.0 °F - 63.0 °F 73% 29.90 in 10.0 mi Calm Calm - N/A   Clear
2:56 AM 71.1 °F - 63.0 °F 75% 29.89 in 10.0 mi Calm Calm - N/A   Clear
3:56 AM 70.0 °F - 63.0 °F 78% 29.89 in 10.0 mi Calm Calm - N/A   Clear
4:56 AM 68.0 °F - 63.0 °F 84% 29.89 in 10.0 mi Calm Calm - N/A   Clear
5:56 AM 68.0 °F - 62.1 °F 81% 29.91 in 10.0 mi West 3.5 mph - N/A   Clear
6:56 AM 66.9 °F - 62.1 °F 84% 29.94 in 10.0 mi Calm Calm - N/A   Clear
7:56 AM 69.1 °F - 63.0 °F 81% 29.94 in 10.0 mi West 3.5 mph - N/A   Clear
8:56 AM 73.0 °F - 64.0 °F 73% 29.96 in 10.0 mi West 3.5 mph - N/A   Clear
9:56 AM 77.0 °F - 64.0 °F 64% 29.96 in 10.0 mi West 5.8 mph - N/A   Clear
10:56 AM 81.0 °F 82.5 °F 64.0 °F 56% 29.96 in 10.0 mi Variable 5.8 mph - N/A   Clear
11:56 AM 84.9 °F 87.1 °F 66.0 °F 53% 29.95 in 10.0 mi West 6.9 mph - N/A   Clear
12:56 PM 88.0 °F 90.3 °F 66.0 °F 48% 29.94 in 10.0 mi WSW 11.5 mph - N/A   Clear
1:56 PM 89.1 °F 89.0 °F 61.0 °F 39% 29.93 in 10.0 mi Variable 5.8 mph - N/A   Clear
2:56 PM 90.0 °F 88.6 °F 57.0 °F 33% 29.91 in 10.0 mi Variable 4.6 mph - N/A   Clear
3:56 PM 91.9 °F 90.0 °F 55.0 °F 29% 29.90 in 10.0 mi Variable 6.9 mph - N/A   Clear
4:56 PM 93.0 °F - 46.9 °F 20% 29.89 in 10.0 mi Variable 5.8 mph - N/A   Clear
5:56 PM 91.0 °F - 46.0 °F 21% 29.90 in 10.0 mi Variable 5.8 mph - N/A   Clear
6:56 PM 88.0 °F 86.5 °F 55.9 °F 34% 29.91 in 10.0 mi Variable 4.6 mph - N/A   Clear
7:56 PM 82.9 °F 82.8 °F 59.0 °F 44% 29.93 in 10.0 mi Calm Calm - N/A   Clear
8:56 PM 77.0 °F - 61.0 °F 58% 29.94 in 10.0 mi Calm Calm - N/A   Clear
9:56 PM 72.0 °F - 63.0 °F 73% 29.95 in 10.0 mi Calm Calm - N/A   Clear
10:56 PM 71.1 °F - 64.0 °F 78% 29.95 in 10.0 mi Calm Calm - N/A   Clear
11:56 PM 69.1 °F - 64.0 °F 84% 29.96 in 10.0 mi Calm Calm - N/A   Clear